Location: CNYAC Observatory
(43.2150°N, 74.9500°W)
Time: 17:39:13
(UTC-05:00)

Daily predictions for brighter satellites

Satellite Brightness Start Highest point End
(mag) Time Altitude Azimuth Time Altitude Azimuth Time Altitude Azimuth
Cosmos 1697 Rocket 4.2 16:51:31 10° SE 16:54:52 16° E 16:58:15 10° ENE
Cosmos 2150 Rocket 4.2 16:53:19 10° SSW 16:58:47 88° ESE 17:04:16 10° NNE
Cosmos 1743 2.9 16:55:54 10° N 16:59:41 49° E 17:03:28 10° SSE
Cosmos 2082 4.1 16:59:58 10° NNW 17:05:17 41° ENE 17:10:35 10° SE
Cosmos 2026 Rocket 4.3 17:00:57 10° N 17:07:21 78° W 17:13:38 10° S
Cosmos 2266 Rocket 4.4 17:03:54 10° N 17:09:33 38° ENE 17:15:15 10° SE
Cosmos 1655 Rocket 4.1 17:03:24 10° N 17:09:49 80° E 17:16:13 10° S
CENTAUR R/B 4.0 17:04:01 10° NNW 17:10:11 26° NNE 17:16:47 10° E
SJ-12 4.3 17:07:31 10° S 17:11:37 70° WSW 17:15:43 10° NNW
Abrixas rocket 3.0 17:09:02 10° W 17:12:08 40° NNW 17:14:55 12° ENE
PSLV R/B 3.9 17:13:13 10° WSW 17:16:16 43° SSE 17:19:07 11° E
Cosmos 2227 Rocket 2.2 17:11:34 10° NNW 17:17:13 64° ENE 17:22:49 10° SE
ISS -3.0 17:16:02 10° WNW 17:19:16 54° SW 17:22:28 10° SE
CZ-2C R/B 3.9 17:14:23 10° S 17:19:19 44° W 17:24:15 10° NNW
SJ-7 4.3 17:16:15 10° SSE 17:20:14 84° ENE 17:24:15 10° N
SPOT 3 Rocket 4.5 17:16:28 10° ESE 17:20:38 25° ENE 17:24:47 10° N
Cosmos 1455 Rocket 3.0 17:17:59 10° N 17:22:26 75° E 17:26:48 10° SSE
ERS-2 3.4 17:20:17 10° ESE 17:23:02 20° ENE 17:25:48 10° NNE
CORIOLIS 4.1 17:17:57 10° SSE 17:23:19 68° ENE 17:28:41 10° N
Cosmos 2219 4.5 17:18:35 10° NW 17:23:54 45° WSW 17:29:12 10° S
Cosmos 1544 Rocket 3.5 17:22:19 10° N 17:26:43 89° E 17:31:02 10° S
Ariane Rocket 3.0 17:24:17 10° SSE 17:29:20 90° WSW 17:34:26 10° NNW
Cosmos 1271 Rocket 3.0 17:26:13 10° NNW 17:30:00 71° W 17:33:50 10° S
Meteor 2-9 Rocket 4.1 17:24:45 10° N 17:30:13 63° ENE 17:35:32 10° SSE
USA 161 4.1 17:29:58 10° NNW 17:32:17 21° WNW 17:34:39 10° WSW
USA 116 3.4 17:30:21 11° NNE 17:33:17 45° E 17:36:16 10° S
YAOGAN 1 2.7 17:29:08 10° SSE 17:33:19 50° ENE 17:37:31 10° N
Cosmos 1980 Rocket 3.5 17:31:36 10° SSE 17:35:42 21° E 17:37:46 17° ENE
AQUARIUS 4.4 17:33:51 10° S 17:38:19 76° WSW 17:42:51 10° NNW
USA 238 DEB 3.9 17:31:30 10° NW 17:38:39 81° SW 17:45:50 10° SSE
USA 238 3.9 17:31:37 10° NW 17:38:45 82° SW 17:45:57 10° SSE
Cosmos 1269 Rocket 4.1 17:33:36 10° NNW 17:38:49 54° ENE 17:43:59 10° SE
Gblst 52 Del rocket 4.4 17:35:49 10° NW 17:41:18 54° NNE 17:46:02 16° E
Cosmos 1125 Rocket 3.5 17:36:33 10° S 17:41:48 68° ESE 17:47:04 10° NNE
Cosmos 2297 Rocket 2.2 17:38:08 10° NNW 17:43:50 87° ENE 17:49:30 10° SSE
Atlas Centaur 2 4.2 17:41:19 10° SW 17:44:37 16° SSW 17:47:33 10° SSE
Cosmos 1484 Rocket 3.9 17:43:57 10° S 17:47:50 48° W 17:51:45 10° NNW
COSMO-SKYMED 1 2.8 17:44:35 12° NNE 17:48:27 46° E 17:52:36 10° S
Cosmos 1666 3.9 17:45:32 10° NNW 17:49:06 43° W 17:52:39 10° SSW
Cosmos 1048 Rocket 4.0 17:44:00 10° NNW 17:49:25 82° ENE 17:54:47 10° SSE
CZ-2C R/B 3.7 17:45:01 10° NNE 17:49:44 82° ESE 17:54:29 10° SSW
Cosmos 1656 3.6 17:44:48 10° SSW 17:50:21 71° ESE 17:55:05 14° NNE
IRS-1A Rocket 4.2 17:45:43 10° SSE 17:51:18 87° ENE 17:56:51 10° NNW
SJ 16-02 1.3 17:49:47 10° SSW 17:54:11 87° ESE 17:58:00 14° NNE
MONITOR-E 4.2 17:54:52 10° SSE 17:57:50 52° ENE 18:00:50 10° N
Cosmos 372 Rocket 3.9 17:53:10 10° SSW 17:58:23 90° W 18:03:11 12° NNE
Cosmos 724 4.4 17:55:50 10° NW 18:01:38 78° WSW 18:07:26 10° SSE
SMAP 4.4 17:58:40 10° S 18:03:03 41° W 18:07:29 10° NNW
NOSS 3-2 (A) 4.0 17:59:56 10° NW 18:07:30 90° SW 18:15:45 10° SE
Meteor 2-4 Rocket 3.9 18:02:51 10° SSW 18:08:15 67° WNW 18:13:36 10° N
MTI 3.7 18:07:57 32° NNE 18:09:20 88° WNW 18:12:35 10° SSW
RESURS DK-1 4.1 18:06:45 10° SSE 18:08:21 17° SE 18:08:21 17° SE
NOAA 12 4.0 18:08:44 10° SSE 18:13:57 70° ENE 18:19:11 10° N
NOSS 3-2 (C) 3.9 18:07:36 10° NW 18:15:09 81° NE 18:23:24 10° SE
Okean 1-7 Rocket 3.7 18:12:00 10° SSE 18:16:13 48° E 18:16:45 45° ENE
BREEZE-M DEB (TANK) 4.3 18:13:24 10° W 18:16:30 39° SSW 18:25:36 10° SE
ALOS 2.1 18:12:27 10° SSE 18:17:06 79° ENE 18:21:47 10° N
DELTA 2 R/B (1) 4.0 18:11:45 10° W 18:17:13 58° S 18:20:00 28° ESE
Cosmos 1025 Rocket 2.9 18:14:04 10° S 18:18:19 68° E 18:19:59 36° NNE
Cosmos 2369 4.2 18:14:12 10° SW 18:19:48 61° WNW 18:24:30 15° NNE
Cosmos 2263 Rocket 4.0 18:16:14 10° N 18:17:42 15° NNE 18:17:42 15° NNE
Cosmos 2278 4.1 18:14:45 10° SW 18:20:23 63° WNW 18:24:58 16° NNE
ATLAS 3B R/B 3.8 18:15:12 10° NW 18:21:24 43° WSW 18:27:27 10° S
ATLAS 2AS CENTAUR R/B 4.0 18:15:06 10° WSW 18:22:32 43° NW 18:29:08 14° NNE
FENGYUN 3A 3.5 18:17:43 10° SSE 18:23:06 85° ENE 18:28:29 10° NNW
Cosmos 2360 4.4 18:18:24 10° S 18:23:50 47° ESE 18:24:59 41° ENE
CZ-4 R/B 3.5 18:22:38 10° SSW 18:25:57 27° W 18:29:21 10° NW
Cosmos 1241 Rocket 4.4 18:20:49 10° SSW 18:27:12 86° ESE 18:30:28 31° NE
Cosmos 2084 3.2 18:28:47 10° SSW 18:32:45 70° SSE 18:32:45 70° SSE
DNEPR-1 R/B 4.0 18:29:17 10° NNW 18:34:21 66° NE 18:36:20 41° ESE
EO 1 Del DPAF 3.6 18:33:38 39° N 18:34:49 63° WNW 18:38:35 10° SSW
SKYMED 2 4.3 18:33:13 16° N 18:36:30 52° WNW 18:40:43 10° SSW
Cosmos 1697 Rocket 2.8 18:32:31 10° SSW 18:38:09 73° WNW 18:41:05 29° NNE
Cosmos 1515 4.4 18:35:03 10° SSW 18:38:45 53° W 18:39:55 37° NNW
DMSP B5D1-3 4.5 18:40:40 30° N 18:43:17 84° WNW 18:48:24 10° SSW
NOSS 3-4 (A) 3.4 18:37:07 10° SW 18:43:21 84° NW 18:45:47 41° NNE
NOSS 3-4 (C) 3.4 18:37:12 10° SW 18:43:26 85° NW 18:45:51 41° NNE
Okean 2 4.0 18:43:01 10° SSW 18:47:01 54° W 18:48:05 41° NNW
ERS-2 4.2 18:53:22 10° SSW 18:56:32 27° W 18:59:44 10° NW
Gbstr 26 Del rocket 4.4 18:48:51 10° WSW 18:56:49 74° NNW 18:58:45 51° NE
BREEZE-M DEB (TANK) 4.3 18:57:36 10° WNW 19:01:04 69° SSW 19:02:42 48° SE
CENTAUR R/B 3.0 18:54:21 10° NW 19:02:15 73° NE 19:04:34 51° ESE
FengYun 1-2 T 4.2 18:56:55 10° SSE 19:02:32 84° WSW 19:08:14 10° NNW
Thor Agena Rocket 4.5 19:12:21 39° S 19:12:21 39° S 19:15:38 10° SSW
Cosmos 2251 Rocket 4.1 19:09:37 10° NNW 19:13:36 51° NW 19:13:36 51° NW
S3M 3.9 19:11:16 10° S 19:17:05 81° SW 19:17:05 81° SW
Cosmos 1980 Rocket 2.6 19:13:37 10° SW 19:19:12 59° WNW 19:19:36 57° NW
Cosmos 1066 Rocket 4.4 19:14:22 10° SSW 19:19:39 64° W 19:19:39 64° W
SJ 16-02 4.3 19:32:13 10° WNW 19:33:27 11° NW 19:34:41 10° NW
Cosmos 2344 4.2 19:35:47 10° SSW 19:40:35 41° S 19:40:35 41° S
